Doha, Qatar

6:54 AM +03 on May 25, 2018 (GMT +0300)
Doha International

Weather History for OTBD - June, 2014

Change the Weather History Date:

Wednesday, June 25, 2014

  Actual Average Record
Temperature  
Mean Temperature 100 °F -  
Max Temperature 111 °F 107 °F 115 °F (2013)
Min Temperature 90 °F 84 °F 74 °F (2015)
Cooling Degree Days 36    
Growing Degree Days 50 (Base 50)    
Moisture  
Dew Point 51 °F    
Average Humidity 21    
Maximum Humidity 41    
Minimum Humidity 4    
Precipitation  
Precipitation 0.00 in 0.00 in - ()
Sea Level Pressure  
Sea Level Pressure 29.49 in    
Wind  
Wind Speed 8 mph ()    
Max Wind Speed 17 mph    
Max Gust Speed -    
Visibility 6.2 miles    
Events      
Averages and records for this station are not official NWS values.
T = Trace of Precipitation, MM = Missing Value Source: Averaged Metar Reports

Daily Weather History Graph

Daily Weather History Graph

Search for Another Location

Airport or City:

Astronomy

Jun. 25, 2014 Rise Set
Actual Time 4:45 AM +03 6:27 PM +03
Civil Twilight 4:19 AM +03 6:53 PM +03
Nautical Twilight 3:48 AM +03 7:24 PM +03
Astronomical Twilight 3:15 AM +03 7:57 PM +03
Moon 3:08 AM +03 4:47 PM +03
Length of Visible Light 14h 34m
Length of Day
13h 42m
Waning Crescent, 4% of the Moon is Illuminated
Jun 25
Waning Crescent
Jun 27
New
Jul 5
First Quarter
Jul 12
Full
Jul 19
Last Quarter

Hourly Weather History & Observations

Time (+03) Temp. Heat Index Dew Point Humidity Pressure Visibility Wind Dir Wind Speed Gust Speed Precip Events Conditions
12:00 AM 96 °F - 55 °F 17% 29.50 in 7 mi West 4.6 mph - -  
12:00 AM 96.8 °F 95.1 °F 55.4 °F 25% 29.50 in - West 4.6 mph - N/A   Clear
12:30 AM 95.0 °F 93.7 °F 57.2 °F 28% 29.47 in - West 4.6 mph - N/A   Clear
1:00 AM 93.2 °F 92.6 °F 59.0 °F 32% 29.47 in - WSW 4.6 mph - N/A   Clear
1:30 AM 91.4 °F 90.7 °F 59.0 °F 34% 29.47 in - WSW 4.6 mph - N/A   Clear
2:00 AM 93.2 °F 91.3 °F 55.4 °F 28% 29.47 in - WSW 3.5 mph - N/A   Clear
2:30 AM 93.2 °F 91.3 °F 55.4 °F 28% 29.47 in - West 5.8 mph - N/A   Clear
3:00 AM 92 °F - 57 °F 21% 29.48 in 7 mi West 5.8 mph - -  
3:00 AM 91.4 °F 89.9 °F 57.2 °F 31% 29.47 in - West 5.8 mph - N/A   Clear
3:30 AM 91.4 °F 89.4 °F 55.4 °F 29% 29.47 in - WNW 5.8 mph - N/A   Clear
4:00 AM 91.4 °F 89.9 °F 57.2 °F 31% 29.47 in - WNW 6.9 mph - N/A   Clear
4:30 AM 93.2 °F 92.6 °F 59.0 °F 32% 29.47 in - WNW 10.4 mph - N/A   Clear
5:00 AM 93.2 °F 92.6 °F 59.0 °F 32% 29.47 in - WNW 12.7 mph - N/A   Clear
5:30 AM 93.2 °F 93.3 °F 60.8 °F 34% 29.47 in 5.0 mi NW 6.9 mph - N/A   Unknown
6:00 AM 92 °F - 65 °F 30% 29.52 in 5 mi NW 8.1 mph - -   Widespread Dust
6:00 AM 91.4 °F 93.2 °F 64.4 °F 41% 29.50 in 5.0 mi NW 8.1 mph - N/A   Unknown
6:30 AM 93.2 °F 94.9 °F 64.4 °F 38% 29.50 in 5.0 mi NW 13.8 mph - N/A   Unknown
7:00 AM 95.0 °F 96.0 °F 62.6 °F 34% 29.50 in 5.0 mi NW 12.7 mph - N/A   Unknown
7:30 AM 96.8 °F 97.1 °F 60.8 °F 30% 29.50 in 5.0 mi NNW 13.8 mph - N/A   Unknown
8:00 AM 98.6 °F 99.4 °F 60.8 °F 29% 29.50 in 5.6 mi NNW 11.5 mph - N/A   Unknown
8:30 AM 98.6 °F 99.4 °F 60.8 °F 29% 29.50 in 5.6 mi NNW 10.4 mph - N/A   Unknown
9:00 AM 101 °F - 59 °F 17% 29.54 in 6 mi North 11.5 mph - -   Widespread Dust
9:00 AM 100.4 °F 100.2 °F 59.0 °F 25% 29.53 in 5.6 mi North 11.5 mph - N/A   Unknown
9:30 AM 102.2 °F 101.4 °F 57.2 °F 22% 29.53 in - NNW 11.5 mph - N/A   Clear
10:00 AM 104.0 °F 102.3 °F 53.6 °F 19% 29.53 in - North 12.7 mph - N/A   Clear
10:30 AM 105.8 °F 104.3 °F 53.6 °F 18% 29.53 in - North 10.4 mph - N/A   Clear
11:00 AM 105.8 °F - 50.0 °F 15% 29.53 in - North 11.5 mph - N/A   Clear
11:30 AM 107.6 °F - 50.0 °F 15% 29.53 in - North 12.7 mph - N/A   Clear
12:00 PM 108 °F - 45 °F 6% 29.53 in 7 mi NW 12.7 mph - -  
12:00 PM 109.4 °F - 44.6 °F 11% 29.50 in - NW 12.7 mph - N/A   Clear
1:00 PM 109.4 °F - 44.6 °F 11% 29.50 in - North 12.7 mph - N/A   Clear
2:00 PM 109.4 °F - 37.4 °F 9% 29.47 in - NNW 15.0 mph - N/A   Clear
2:30 PM 109.4 °F - 37.4 °F 9% 29.47 in - NNW 12.7 mph - N/A   Clear
3:00 PM 110 °F - 39 °F 4% 29.48 in 9 mi NNW 16.1 mph - -  
3:00 PM 109.4 °F - 39.2 °F 9% 29.47 in - NNW 16.1 mph - N/A   Clear
3:30 PM 107.6 °F - 35.6 °F 8% 29.44 in - NNW 16.1 mph - N/A   Clear
4:00 PM 107.6 °F - 37.4 °F 9% 29.44 in - NNW 17.3 mph - N/A   Clear
4:30 PM 102.2 °F 104.2 °F 62.6 °F 27% 29.47 in - North 15.0 mph - N/A   Clear
5:00 PM 102.2 °F 101.4 °F 57.2 °F 22% 29.47 in - North 17.3 mph - N/A   Clear
5:30 PM 102.2 °F 100.9 °F 55.4 °F 21% 29.47 in - North 12.7 mph - N/A   Clear
6:00 PM 102 °F - 43 °F 7% 29.48 in 7 mi North 11.5 mph - -  
6:00 PM 102.2 °F - 42.8 °F 13% 29.47 in - North 11.5 mph - N/A   Clear
6:30 PM 102.2 °F - 41.0 °F 12% 29.47 in - NW 11.5 mph - N/A   Clear
7:00 PM 100.4 °F - 41.0 °F 13% 29.47 in - NNW 12.7 mph - N/A   Clear
7:30 PM 100.4 °F - 44.6 °F 15% 29.47 in - NNW 10.4 mph - N/A   Clear
8:00 PM 100.4 °F - 46.4 °F 16% 29.47 in - NW 6.9 mph - N/A   Clear
8:30 PM 98.6 °F - 42.8 °F 15% 29.50 in - NW 9.2 mph - N/A   Clear
9:00 PM 98 °F - 44 °F 9% 29.52 in 9 mi NNW 6.9 mph - -  
9:00 PM 98.6 °F - 44.6 °F 16% 29.50 in - NNW 6.9 mph - N/A   Clear
10:00 PM 98.6 °F - 37.4 °F 12% 29.50 in - NW 6.9 mph - N/A   Clear
10:30 PM 98.6 °F - 48.2 °F 18% 29.50 in - Variable 2.3 mph - N/A   Clear
11:00 PM 98.6 °F - 39.2 °F 13% 29.50 in - WNW 4.6 mph - N/A   Clear